Location: Armidale
(30.5016°S, 151.6662°E)
Time: 01:33:55
(UTC+10:00)

Hubble Space Telescope - Pass Details

Date: 04 August 2020
Orbit: 536 x 540 km, 28.5° (Epoch: 28 September)

Event Time Altitude Azimuth Distance (km) Brightness Sun altitude
Rises 17:38:11 0° 322° (NW) 2,665 5.4 -4.2°
Reaches altitude 10° 17:41:02 10° 342° (NNW) 1,779 4.0 -4.8°
Maximum altitude 17:43:47 17° 24° (NNE) 1,383 2.8 -5.3°
Drops below altitude 10° 17:46:32 10° 66° (ENE) 1,786 3.0 -5.9°
Enters shadow 17:48:04 - 79° (ENE) 2,239 3.4 -6.2°
